Вернуться в каталог

CZ-6A DEB

АктивенLEO
NORAD 100175·DEBRIS·🇨🇳 China

Запущен Jul 30, 2026 с Taiyuan Satellite Launch Center

Loading…

Ближайшие Пролёты (ближайшие 24 часа)

TLE

СвежийSource: Space-Track

Эпоха: Sep 14, 2026, 13:20 UTC

1 A0175U 26173B   26257.55563734 -.00000355  00000-0 -61233-3 0  9995
2 A0175  64.7883 165.7466 0005534 239.4622 120.5861 13.27995776  6185

Отслеживайте CZ-6A DEB в реальном времени с AllMySat

Download on the App Store